Location: Devils Tower National Monument
(44.5904°N, 104.7201°W)
Time: 04:22:34
(UTC-07:00)

Envisat - Pass Details

Date: 30 January 2020
Orbit: 764 x 766 km, 98.1° (Epoch: 25 February)

Event Time Altitude Azimuth Distance (km) Brightness Sun altitude
Rises 19:03:09 0° 209° (SSW) 3,218 6.7 -21.2°
Reaches altitude 10° 19:06:14 10° 229° (SW) 2,297 6.2 -21.7°
Maximum altitude 19:09:32 17° 270° (W) 1,848 5.9 -22.3°
Drops below altitude 10° 19:12:51 10° 311° (NW) 2,308 6.1 -22.9°
Sets 19:15:58 0° 331° (NNW) 3,240 6.6 -23.5°
